SCP
-0 -0 -0 -0 -0 -0 0 0 0 0 0 0 0 0 0 0 0 0 0 0 0 0 0 0 0 0 0 0 0 0 0 0 0 0 0 0 0 0 0 0 0 0 0 0 0
-0 -0 -0 -0 -0 -0 -0 -0 0 0 0 0 0 0 0 0 0 0 0 0 0 0 0 0 0 0 0 0 0 0 0 0 0 0 0 0 0 0 0 0 0 0 0 0 0
-0 -0 -0 -0 -0 -0 -0 -0 -0 0 0 0 0 0 0 0 0 0 0 0 0 0 0 0 0 0 0 0 0 0 0 0 0 0 0 0 0 0 0 0 0 0 0 0 0
-0 -0 -0 -0 -0 -0 -0 -0 0 0 0 0 0 0 0 0 0 0 0 0 0 0 0 0 0 0 0 0 0 0 0 0 0 0 0 0 0 0 0 0 0 0 0 0 0
-0 -0 -0 -0 -0 -0 -0 -0 -0 -0 0 0 0 0 0 0 0 0 0 0 0 0 0 0 0 0 0 0 0 0 0 0 0 0 0 0 0 0 0 0 0 0 0 0 0
-0 -0 -0 -0 -0 -0 -0 -0 0 0 0 0 0 0 0 0 0 0 0 0 0 0 0 0 0 0 0 0 0 0 0 0 0 0 0 0 0 0 0 0 0 0 0 0 0
-0 -0 -0 -0 -0 -0 -0 -0 0 -0 -0 0 0 0 0 0 0 0 0 0 0 0 0 0 0 0 0 0 0 0 0 0 0 0 0 0 0 0 0 0 0 0 0 0 0
-0 -0 -0 -0 -0 -0 -0 -0 0 -0 -0 -0 -0 0 0 0 0 0 0 0 0 0 0 0 0 0 0 0 0 0 0 0 0 0 0 0 0 0 0 0 0 0 0 0 0
-0 -0 -0 -0 -0 -0 0 0 -0 0 0 0 -0 0 0 0 0 0 0 0 0 0 0 0 0 0 0 0 0 0 0 0 0 0 0 0 0 0 0 0 0 0 0 0 0
-0 -0 -0 -0 -0 -0 0 0 0 0 0 0 0 0 0 0 0 0 0 0 0 0 0 0 0 0 0 0 0 0 0 0 0 0 0 0 0 0 0 0 0 0 0 0 0
-0 -0 -0 -0 -0 -0 0 0 0 0 0 0 0 0 0 0 0 0 0 0 0 0 0 0 0 0 0 0 0 0 0 0 0 0 0 0 0 0 0 0 0 0 0 0 0
-0 -0 0 -0 -0 0 0 0 0 0 0 0 0 0 0 0 0 0 0 0 0 0 0 0 0 0 0 0 0 0 0 0 0 0 0 0 0 0 0 0 0 0 0 0 0
-0 -0 -0 -0 -0 0 0 0 0 0 0 0 0 0 0 0 0 0 0 0 0 0 0 0 0 0 0 0 0 0 0 0 0 0 0 0 0 0 0 0 0 0 0 0 0
-0 -0 0 -0 0 0 0 0 0 0 0 0 0 0 0 0 0 0 0 0 0 0 0 0 0 0 0 0 0 0 0 0 0 0 0 0 0 0 0 0 0 0 0 0 0
-0 -0 0 0 -0 0 0 0 0 0 0 0 0 0 0 0 0 0 0 0 0 0 0 0 0 0 0 0 0 0 0 0 0 0 0 0 0 0 0 0 0 0 0 0 0
-0 -0 -0 0 0 -0 -0 -0 0 0 0 0 0 0 0 0 0 0 0 0 0 0 0 0 0 0 0 0 0 0 0 0 0 0 0 0 0 0 0 0 0 0 0 0 0
-0 -0 -0 0 0 0 -0 0 0 0 0 0 0 0 0 0 0 0 0 0 0 0 0 0 0 0 0 0 0 0 0 0 0 0 0 0 0 0 0 0 0 0 0 0 0
-0 -0 0 0 -0 -0 0 0 -0 0 0 0 0 0 0 0 0 0 0 0 0 0 0 0 0 0 0 0 0 0 0 0 0 0 0 0 0 0 0 0 0 0 0 0 0
-0 0 0 0 -0 -0 -0 -0 0 0 0 0 0 0 0 0 0 0 0 0 0 0 0 0 0 0 0 0 0 0 0 0 0 0 0 0 0 0 0 0 0 0 0 0 0
0 -0 0 0 0 -0 0 0 0 0 0 0 0 0 0 0 0 0 0 0 0 0 0 0 0 0 0 0 0 0 0 0 0 0 0 0 0 0 0 0 0 0 0 0 0
0 0 0 0 -0 0 0 0 0 0 0 0 0 0 0 0 0 0 0 0 0 0 0 0 0 0 0 0 0 0 0 0 0 0 0 0 0 0 0 0 0 0 0 0 0
0 0 0 -0 0 0 0 0 0 0 0 0 0 0 0 0 0 0 0 0 0 0 0 0 0 0 0 0 0 0 0 0 0 0 0 0 0 0 0 0 0 0 0 0 0
0 0 0 0 0 0 0 0 0 0 0 0 0 0 0 0 0 0 0 0 0 0 0 0 0 0 0 -0 0 0 0 0 0 0 0 0 0 0 0 0 0 0 0 0 0
0 0 0 0 0 0 0 0 0 0 0 0 0 0 0 0 0 0 0 0 0 0 0 0 0 0 0 0 0 0 0 0 0 0 0 0 0 0 0 0 0 0 0 0 0
0 0 0 0 0 0 0 0 0 0 0 0 0 0 0 0 0 0 0 0 0 0 0 0 0 0 0 0 0 0 0 0 0 0 0 0 0 0 0 0 0 0 0 0 0
0 0 0 0 0 0 0 0 0 0 0 0 0 0 0 0 0 0 0 0 0 0 0 0 0 0 0 0 0 0 0 0 0 0 0 0 0 0 0 0 0 0 0 0 0
0 0 0 0 0 0 0 0 0 0 0 0 0 0 0 0 0 0 0 0 0 0 0 0 0 0 0 0 0 0 0 0 0 0 0 0 0 0 0 0 0 0 0 0 0
Wind_Speed_500mb
27 20 17 14 12 10 9 9 10 11 11 11 13 15 15 15 18 24 27 20 19 24 15 14 16 20 22 19 16 16 13 24 32 26 20 12 19 14 14 23 25 20 25 19 25
35 27 21 18 15 12 9 8 9 9 10 12 13 13 14 14 20 27 16 16 20 30 20 18 19 25 26 25 19 24 22 28 11 24 18 13 17 20 21 28 28 27 26 26 23
40 33 26 20 17 14 9 7 8 8 9 10 11 12 12 13 11 6 12 16 19 35 21 21 22 23 20 23 25 22 27 18 16 21 17 22 28 25 23 30 33 29 26 28 27
45 37 30 23 17 14 11 7 5 5 6 6 9 10 9 6 2 3 12 21 21 24 17 18 25 25 21 22 28 20 29 24 20 15 24 25 26 26 26 32 28 27 30 28 27
51 42 35 27 20 14 10 9 7 5 5 6 7 8 6 10 10 10 14 19 17 17 20 20 25 23 25 25 23 27 19 21 24 24 25 26 31 30 30 24 29 22 22 23 23
51 49 40 33 23 14 12 10 9 8 5 6 6 6 3 16 14 17 15 15 16 21 22 20 15 18 13 16 27 12 19 20 19 25 21 23 32 21 21 14 20 24 23 23 22
48 49 47 36 26 17 13 11 9 9 7 6 5 6 12 17 14 21 22 18 23 18 18 13 9 13 9 10 7 10 19 21 27 29 24 21 29 32 31 27 24 25 19 20 26
42 46 47 44 29 19 17 13 13 15 13 12 9 7 12 14 25 26 27 23 25 15 11 10 4 4 11 3 8 15 13 23 11 8 11 16 24 11 8 14 14 13 14 11 12
39 43 45 46 44 20 15 16 21 18 16 14 10 5 8 10 23 29 31 23 24 19 13 9 9 14 14 21 20 22 25 19 14 10 12 18 16 12 12 20 17 18 17 17 16
42 43 43 46 47 31 15 16 16 15 12 7 11 11 15 6 17 29 29 21 28 26 18 21 19 20 22 21 23 20 23 16 21 13 15 22 26 24 28 27 25 27 25 24 24
46 46 44 43 44 34 14 9 4 6 13 19 10 8 9 6 10 25 31 29 26 32 29 29 22 27 29 24 21 15 18 23 19 18 19 25 24 20 25 26 30 34 32 31 31
48 53 54 43 37 22 8 8 9 9 18 28 34 36 29 6 13 25 33 34 28 31 30 17 31 28 19 17 22 24 26 27 22 18 14 30 31 29 29 34 35 35 37 37 38
49 52 53 48 36 18 13 17 14 15 13 4 9 12 16 35 19 28 43 43 28 32 28 34 3 10 23 26 27 27 28 24 24 23 27 35 37 39 32 29 31 40 42 38 33
56 55 56 48 21 13 16 9 11 14 9 12 10 8 10 17 15 24 36 32 22 29 29 25 33 31 21 25 24 27 23 25 26 26 26 8 28 33 31 21 28 29 27 31 9
65 59 53 37 25 18 9 14 7 4 9 8 11 10 15 23 17 22 30 25 28 20 16 12 13 17 28 30 24 27 19 19 23 28 34 38 24 28 24 24 25 22 21 4 5
70 51 39 18 18 16 18 15 5 11 7 10 10 12 20 19 10 11 21 22 11 25 26 36 15 15 20 11 16 16 21 29 33 27 33 39 35 29 22 19 5 14 14 5 9
57 30 24 3 5 12 20 13 10 10 3 7 6 9 8 13 16 11 19 29 20 20 29 35 39 39 35 28 30 29 26 25 31 27 31 28 15 25 26 15 25 21 9 9 15
25 23 21 12 19 18 18 13 12 3 4 3 2 7 10 7 10 5 6 19 23 29 30 30 29 31 19 33 34 31 29 26 39 29 30 12 20 11 5 12 22 11 10 13 18
10 25 23 19 13 21 13 12 9 4 6 8 9 13 12 6 9 6 11 17 9 5 19 20 32 7 15 20 18 23 22 27 38 40 34 34 37 33 23 20 16 22 13 18 30
4 10 20 18 15 4 10 5 1 9 10 8 11 8 12 7 10 5 10 14 15 11 9 17 28 32 26 15 27 25 22 20 19 24 31 20 19 15 20 28 16 17 15 26 37
7 4 15 6 8 9 7 6 2 13 15 10 6 10 9 14 14 18 11 12 18 18 18 15 11 18 21 29 29 21 27 30 28 26 25 27 17 11 10 12 10 17 23 41 44
7 4 14 4 10 1 3 5 5 9 8 6 11 15 18 11 16 13 23 25 10 9 3 4 9 24 39 26 25 25 33 35 22 19 22 20 30 32 20 22 7 29 40 43 37
10 5 12 1 4 4 2 5 7 13 11 8 9 7 8 17 8 15 21 8 22 12 9 3 11 11 13 30 28 29 34 27 34 32 40 31 19 10 12 16 33 36 38 37 29
8 3 8 15 8 5 6 3 7 14 14 12 12 9 10 9 13 13 11 11 5 8 19 5 13 27 25 27 12 22 23 24 28 23 34 38 48 37 36 34 35 40 42 32 30
11 5 6 3 8 6 3 1 11 10 7 16 7 11 10 6 15 21 25 26 25 21 13 9 10 29 40 43 39 39 39 38 42 44 44 42 49 46 42 38 40 36 31 32 36
7 7 2 5 1 5 5 4 5 4 2 7 9 16 16 12 14 10 12 15 18 16 20 12 8 27 36 33 32 40 42 45 49 49 53 50 50 39 41 23 31 34 35 41 45
3 2 6 6 1 5 3 1 6 16 13 12 12 15 22 25 30 35 42 45 31 17 15 9 9 8 15 20 23 28 40 40 37 40 33 38 32 20 21 26 26 41 45 48 54
Wind_Direction_500mb
10 358 340 328 319 308 300 294 283 278 269 257 253 252 254 259 264 268 262 241 227 208 183 165 164 176 178 196 196 203 236 240 228 235 229 234 229 191 275 268 270 269 277 287 315
11 9 359 345 334 326 308 291 281 275 272 265 260 260 267 279 284 272 257 230 211 196 174 169 169 168 185 193 192 211 227 243 207 257 259 264 260 267 276 270 254 259 258 274 298
14 10 6 357 344 331 319 298 278 275 271 263 260 260 268 297 292 170 224 197 186 174 182 187 179 181 191 192 193 208 240 243 233 246 261 261 263 264 259 260 259 259 259 263 272
21 15 12 4 355 341 327 315 306 284 257 257 259 257 272 295 251 207 175 165 155 160 170 174 181 193 202 203 196 230 236 252 257 261 253 256 267 266 252 261 269 263 265 266 262
22 19 11 6 359 354 348 339 332 310 281 267 249 239 252 253 248 195 160 172 177 172 183 183 189 205 213 204 197 232 234 241 249 255 262 272 262 262 264 264 258 255 264 270 268
21 19 13 5 359 0 354 347 342 334 300 273 267 248 219 241 224 188 160 167 179 164 174 181 205 210 204 207 217 177 246 248 249 256 255 257 265 254 250 224 254 260 263 260 257
13 18 17 7 356 345 342 339 326 325 333 308 279 262 262 244 208 187 171 163 169 167 173 180 173 203 171 185 219 233 260 243 244 247 238 256 261 248 253 256 258 264 264 258 260
359 3 8 12 354 333 324 324 318 302 294 301 294 299 251 243 207 192 185 182 180 186 158 167 187 238 249 122 195 243 249 255 177 256 214 214 260 170 271 215 233 242 258 252 255
344 347 351 354 1 326 307 308 311 287 278 280 295 261 266 242 209 199 191 191 189 192 191 166 199 241 205 228 226 210 254 209 237 228 252 226 260 174 227 246 260 253 255 259 257
336 334 337 341 346 336 295 300 307 284 263 270 238 260 232 203 186 184 187 186 184 183 186 203 215 224 222 220 237 242 220 217 244 167 228 257 254 258 258 262 255 253 256 264 266
332 328 326 332 337 334 287 293 350 216 217 248 268 254 131 159 167 185 182 177 183 197 211 206 228 223 227 223 280 266 259 257 257 260 258 261 265 266 261 260 257 254 257 263 266
327 324 319 319 328 342 278 239 288 297 292 269 257 243 240 222 199 185 186 191 200 211 209 201 233 247 245 231 234 238 249 253 266 263 253 273 274 269 262 260 256 260 261 263 268
330 325 317 313 311 285 315 251 262 319 276 254 209 228 224 201 208 187 187 202 207 222 212 239 181 31 226 220 233 235 250 263 272 292 273 264 266 256 246 241 260 253 257 265 266
332 327 316 307 309 248 306 236 246 316 272 141 180 160 160 173 214 201 193 203 220 242 229 257 258 239 234 241 224 250 239 257 272 274 276 318 287 289 270 256 250 254 260 261 287
332 328 307 300 276 282 242 196 260 242 269 125 110 145 163 180 130 187 197 209 238 215 228 235 226 221 233 243 240 260 275 261 275 276 283 271 265 263 247 244 246 254 283 8 275
337 327 313 297 251 228 221 191 199 229 222 122 125 154 169 193 130 126 193 213 258 252 229 264 265 268 265 282 227 259 267 259 260 265 262 267 258 271 261 268 240 261 209 244 307
346 355 359 62 130 167 175 182 205 249 112 116 102 186 195 173 186 161 183 203 222 221 231 244 246 246 245 262 254 235 260 268 262 246 256 253 258 274 294 260 284 310 292 269 297
5 17 26 35 181 161 159 214 236 65 9 51 297 208 198 214 128 341 254 228 215 255 276 279 267 244 243 240 259 270 259 254 272 275 282 228 244 242 61 285 304 255 242 276 316
29 40 27 35 135 153 208 228 3 15 350 321 258 251 178 197 308 327 279 279 283 267 261 282 254 277 271 273 259 278 243 273 281 275 272 267 261 255 242 251 216 232 256 303 323
46 60 27 57 116 125 245 12 122 18 339 302 276 310 256 214 256 178 240 255 244 259 317 288 288 270 263 256 248 256 277 261 228 271 270 255 257 265 202 244 191 238 274 310 317
81 165 356 73 93 214 274 48 1 15 342 323 294 268 300 274 273 292 257 255 232 246 224 272 257 260 266 239 252 234 243 240 270 269 272 279 268 74 282 260 226 271 307 319 317
356 182 353 133 226 242 305 0 320 336 328 297 297 294 282 286 269 243 252 241 145 78 243 95 286 264 263 264 249 239 266 272 256 258 261 280 264 277 251 253 247 283 314 307 303
351 353 351 339 270 138 69 271 348 345 326 306 279 264 292 281 282 275 279 309 269 225 191 95 228 266 260 227 236 252 254 248 258 268 257 256 253 193 198 243 250 296 305 297 291
330 233 47 58 80 346 1 0 321 339 301 312 302 326 302 280 256 272 262 278 245 277 204 229 249 250 263 289 260 275 276 262 258 256 264 257 268 265 276 290 311 305 296 290 286
7 58 356 28 63 13 319 348 319 349 340 308 263 279 336 280 274 246 244 259 282 273 231 184 253 251 261 270 276 273 270 268 260 257 257 271 275 281 293 311 306 303 293 278 279
2 330 36 109 258 292 152 73 321 2 294 340 304 300 290 252 238 280 292 274 259 274 238 196 252 259 263 259 265 269 268 264 260 262 265 269 274 286 293 296 291 287 281 284 294
13 342 317 134 215 291 9 26 308 328 280 277 311 320 288 287 273 275 275 274 264 238 223 230 237 236 253 265 282 274 257 254 260 259 262 261 272 312 294 290 288 286 295 295 295
Wind_Speed_850mb
27 20 17 14 12 10 9 9 10 11 11 11 13 15 15 15 18 24 27 20 19 24 15 14 16 20 22 19 16 16 13 24 32 26 20 12 19 14 14 23 25 20 25 19 25
35 27 21 18 15 12 9 8 9 9 10 12 13 13 14 14 20 27 16 16 20 30 20 18 19 25 26 25 19 24 22 28 11 24 18 13 17 20 21 28 28 27 26 26 23
40 33 26 20 17 14 9 7 8 8 9 10 11 12 12 13 11 6 12 16 19 35 21 21 22 23 20 23 25 22 27 18 16 21 17 22 28 25 23 30 33 29 26 28 27
45 37 30 23 17 14 11 7 5 5 6 6 9 10 9 6 2 3 12 21 21 24 17 18 25 25 21 22 28 20 29 24 20 15 24 25 26 26 26 32 28 27 30 28 27
51 42 35 27 20 14 10 9 7 5 5 6 7 8 6 10 10 10 14 19 17 17 20 20 25 23 25 25 23 27 19 21 24 24 25 26 31 30 30 24 29 22 22 23 23
51 49 40 33 23 14 12 10 9 8 5 6 6 6 3 16 14 17 15 15 16 21 22 20 15 18 13 16 27 12 19 20 19 25 21 23 32 21 21 14 20 24 23 23 22
48 49 47 36 26 17 13 11 9 9 7 6 5 6 12 17 14 21 22 18 23 18 18 13 9 13 9 10 7 10 19 21 27 29 24 21 29 32 31 27 24 25 19 20 26
42 46 47 44 29 19 17 13 13 15 13 12 9 7 12 14 25 26 27 23 25 15 11 10 4 4 11 3 8 15 13 23 11 8 11 16 24 11 8 14 14 13 14 11 12
39 43 45 46 44 20 15 16 21 18 16 14 10 5 8 10 23 29 31 23 24 19 13 9 9 14 14 21 20 22 25 19 14 10 12 18 16 12 12 20 17 18 17 17 16
42 43 43 46 47 31 15 16 16 15 12 7 11 11 15 6 17 29 29 21 28 26 18 21 19 20 22 21 23 20 23 16 21 13 15 22 26 24 28 27 25 27 25 24 24
46 46 44 43 44 34 14 9 4 6 13 19 10 8 9 6 10 25 31 29 26 32 29 29 22 27 29 24 21 15 18 23 19 18 19 25 24 20 25 26 30 34 32 31 31
48 53 54 43 37 22 8 8 9 9 18 28 34 36 29 6 13 25 33 34 28 31 30 17 31 28 19 17 22 24 26 27 22 18 14 30 31 29 29 34 35 35 37 37 38
49 52 53 48 36 18 13 17 14 15 13 4 9 12 16 35 19 28 43 43 28 32 28 34 3 10 23 26 27 27 28 24 24 23 27 35 37 39 32 29 31 40 42 38 33
56 55 56 48 21 13 16 9 11 14 9 12 10 8 10 17 15 24 36 32 22 29 29 25 33 31 21 25 24 27 23 25 26 26 26 8 28 33 31 21 28 29 27 31 9
65 59 53 37 25 18 9 14 7 4 9 8 11 10 15 23 17 22 30 25 28 20 16 12 13 17 28 30 24 27 19 19 23 28 34 38 24 28 24 24 25 22 21 4 5
70 51 39 18 18 16 18 15 5 11 7 10 10 12 20 19 10 11 21 22 11 25 26 36 15 15 20 11 16 16 21 29 33 27 33 39 35 29 22 19 5 14 14 5 9
57 30 24 3 5 12 20 13 10 10 3 7 6 9 8 13 16 11 19 29 20 20 29 35 39 39 35 28 30 29 26 25 31 27 31 28 15 25 26 15 25 21 9 9 15
25 23 21 12 19 18 18 13 12 3 4 3 2 7 10 7 10 5 6 19 23 29 30 30 29 31 19 33 34 31 29 26 39 29 30 12 20 11 5 12 22 11 10 13 18
10 25 23 19 13 21 13 12 9 4 6 8 9 13 12 6 9 6 11 17 9 5 19 20 32 7 15 20 18 23 22 27 38 40 34 34 37 33 23 20 16 22 13 18 30
4 10 20 18 15 4 10 5 1 9 10 8 11 8 12 7 10 5 10 14 15 11 9 17 28 32 26 15 27 25 22 20 19 24 31 20 19 15 20 28 16 17 15 26 37
7 4 15 6 8 9 7 6 2 13 15 10 6 10 9 14 14 18 11 12 18 18 18 15 11 18 21 29 29 21 27 30 28 26 25 27 17 11 10 12 10 17 23 41 44
7 4 14 4 10 1 3 5 5 9 8 6 11 15 18 11 16 13 23 25 10 9 3 4 9 24 39 26 25 25 33 35 22 19 22 20 30 32 20 22 7 29 40 43 37
10 5 12 1 4 4 2 5 7 13 11 8 9 7 8 17 8 15 21 8 22 12 9 3 11 11 13 30 28 29 34 27 34 32 40 31 19 10 12 16 33 36 38 37 29
8 3 8 15 8 5 6 3 7 14 14 12 12 9 10 9 13 13 11 11 5 8 19 5 13 27 25 27 12 22 23 24 28 23 34 38 48 37 36 34 35 40 42 32 30
11 5 6 3 8 6 3 1 11 10 7 16 7 11 10 6 15 21 25 26 25 21 13 9 10 29 40 43 39 39 39 38 42 44 44 42 49 46 42 38 40 36 31 32 36
7 7 2 5 1 5 5 4 5 4 2 7 9 16 16 12 14 10 12 15 18 16 20 12 8 27 36 33 32 40 42 45 49 49 53 50 50 39 41 23 31 34 35 41 45
3 2 6 6 1 5 3 1 6 16 13 12 12 15 22 25 30 35 42 45 31 17 15 9 9 8 15 20 23 28 40 40 37 40 33 38 32 20 21 26 26 41 45 48 54
Wind_Direction_850mb
10 358 340 328 319 308 300 294 283 278 269 257 253 252 254 259 264 268 262 241 227 208 183 165 164 176 178 196 196 203 236 240 228 235 229 234 229 191 275 268 270 269 277 287 315
11 9 359 345 334 326 308 291 281 275 272 265 260 260 267 279 284 272 257 230 211 196 174 169 169 168 185 193 192 211 227 243 207 257 259 264 260 267 276 270 254 259 258 274 298
14 10 6 357 344 331 319 298 278 275 271 263 260 260 268 297 292 170 224 197 186 174 182 187 179 181 191 192 193 208 240 243 233 246 261 261 263 264 259 260 259 259 259 263 272
21 15 12 4 355 341 327 315 306 284 257 257 259 257 272 295 251 207 175 165 155 160 170 174 181 193 202 203 196 230 236 252 257 261 253 256 267 266 252 261 269 263 265 266 262
22 19 11 6 359 354 348 339 332 310 281 267 249 239 252 253 248 195 160 172 177 172 183 183 189 205 213 204 197 232 234 241 249 255 262 272 262 262 264 264 258 255 264 270 268
21 19 13 5 359 0 354 347 342 334 300 273 267 248 219 241 224 188 160 167 179 164 174 181 205 210 204 207 217 177 246 248 249 256 255 257 265 254 250 224 254 260 263 260 257
13 18 17 7 356 345 342 339 326 325 333 308 279 262 262 244 208 187 171 163 169 167 173 180 173 203 171 185 219 233 260 243 244 247 238 256 261 248 253 256 258 264 264 258 260
359 3 8 12 354 333 324 324 318 302 294 301 294 299 251 243 207 192 185 182 180 186 158 167 187 238 249 122 195 243 249 255 177 256 214 214 260 170 271 215 233 242 258 252 255
344 347 351 354 1 326 307 308 311 287 278 280 295 261 266 242 209 199 191 191 189 192 191 166 199 241 205 228 226 210 254 209 237 228 252 226 260 174 227 246 260 253 255 259 257
336 334 337 341 346 336 295 300 307 284 263 270 238 260 232 203 186 184 187 186 184 183 186 203 215 224 222 220 237 242 220 217 244 167 228 257 254 258 258 262 255 253 256 264 266
332 328 326 332 337 334 287 293 350 216 217 248 268 254 131 159 167 185 182 177 183 197 211 206 228 223 227 223 280 266 259 257 257 260 258 261 265 266 261 260 257 254 257 263 266
327 324 319 319 328 342 278 239 288 297 292 269 257 243 240 222 199 185 186 191 200 211 209 201 233 247 245 231 234 238 249 253 266 263 253 273 274 269 262 260 256 260 261 263 268
330 325 317 313 311 285 315 251 262 319 276 254 209 228 224 201 208 187 187 202 207 222 212 239 181 31 226 220 233 235 250 263 272 292 273 264 266 256 246 241 260 253 257 265 266
332 327 316 307 309 248 306 236 246 316 272 141 180 160 160 173 214 201 193 203 220 242 229 257 258 239 234 241 224 250 239 257 272 274 276 318 287 289 270 256 250 254 260 261 287
332 328 307 300 276 282 242 196 260 242 269 125 110 145 163 180 130 187 197 209 238 215 228 235 226 221 233 243 240 260 275 261 275 276 283 271 265 263 247 244 246 254 283 8 275
337 327 313 297 251 228 221 191 199 229 222 122 125 154 169 193 130 126 193 213 258 252 229 264 265 268 265 282 227 259 267 259 260 265 262 267 258 271 261 268 240 261 209 244 307
346 355 359 62 130 167 175 182 205 249 112 116 102 186 195 173 186 161 183 203 222 221 231 244 246 246 245 262 254 235 260 268 262 246 256 253 258 274 294 260 284 310 292 269 297
5 17 26 35 181 161 159 214 236 65 9 51 297 208 198 214 128 341 254 228 215 255 276 279 267 244 243 240 259 270 259 254 272 275 282 228 244 242 61 285 304 255 242 276 316
29 40 27 35 135 153 208 228 3 15 350 321 258 251 178 197 308 327 279 279 283 267 261 282 254 277 271 273 259 278 243 273 281 275 272 267 261 255 242 251 216 232 256 303 323
46 60 27 57 116 125 245 12 122 18 339 302 276 310 256 214 256 178 240 255 244 259 317 288 288 270 263 256 248 256 277 261 228 271 270 255 257 265 202 244 191 238 274 310 317
81 165 356 73 93 214 274 48 1 15 342 323 294 268 300 274 273 292 257 255 232 246 224 272 257 260 266 239 252 234 243 240 270 269 272 279 268 74 282 260 226 271 307 319 317
356 182 353 133 226 242 305 0 320 336 328 297 297 294 282 286 269 243 252 241 145 78 243 95 286 264 263 264 249 239 266 272 256 258 261 280 264 277 251 253 247 283 314 307 303
351 353 351 339 270 138 69 271 348 345 326 306 279 264 292 281 282 275 279 309 269 225 191 95 228 266 260 227 236 252 254 248 258 268 257 256 253 193 198 243 250 296 305 297 291
330 233 47 58 80 346 1 0 321 339 301 312 302 326 302 280 256 272 262 278 245 277 204 229 249 250 263 289 260 275 276 262 258 256 264 257 268 265 276 290 311 305 296 290 286
7 58 356 28 63 13 319 348 319 349 340 308 263 279 336 280 274 246 244 259 282 273 231 184 253 251 261 270 276 273 270 268 260 257 257 271 275 281 293 311 306 303 293 278 279
2 330 36 109 258 292 152 73 321 2 294 340 304 300 290 252 238 280 292 274 259 274 238 196 252 259 263 259 265 269 268 264 260 262 265 269 274 286 293 296 291 287 281 284 294
13 342 317 134 215 291 9 26 308 328 280 277 311 320 288 287 273 275 275 274 264 238 223 230 237 236 253 265 282 274 257 254 260 259 262 261 272 312 294 290 288 286 295 295 295